Regional Weather Roundup
Issued by NWS

Home | Current Version | Previous Version | Text Only | Print | Product List | Glossary Off
Versions: 1 2 3 4 5 6 7 8 9 10 11 12 13 14 15 16 17 18 19 20 21 22 23 24 25 26 27 28 29 30 31 32 33 34 35 36 37 38 39 40 41 42 43 44 45 46 47 48 49 50

000
ASUS45 KTFX 030710
RWRMT
MONTANA REGIONAL WEATHER ROUNDUP
NATIONAL WEATHER SERVICE GREAT FALLS MT
100 AM MDT MON AUG 03 2015

NOTE: "FAIR" INDICATES FEW OR NO CLOUDS BELOW 12000 FEET WITH NO
SIGNIFICANT WEATHER AND/OR OBSTRUCTIONS TO VISIBILITY.

MTZ001>007-043-030800-
WEST OF THE DIVIDE

CITY           SKY/WX    TMP DP  RH WIND       PRES   REMARKS
KALISPELL      MOSUNNY   55  38  52 CALM      29.88S
MISSOULA       PTCLDY    68  36  30 SE3       29.91S
BUTTE          PTCLDY    58  36  43 S8        30.08S
MULLAN PASS    PTCLDY    71  20  14 N6        30.11S
DEER LODGE       N/A     57  39  51 CALM      30.06R
EUREKA           N/A     64  34  32 CALM      29.87S
HAMILTON         N/A     63  41  45 S3        29.92F
LIBBY            N/A     63  30  29 SE3       29.88S
PLAINS           N/A     62  40  44 CALM      29.89S
RONAN            N/A     62  44  51 CALM      29.95S
THOMPSON FALLS   N/A     62  32  32 CALM      29.93S
$$

MTZ008-052>055-030800-
SOUTHWEST MONTANA

CITY           SKY/WX    TMP DP  RH WIND       PRES   REMARKS
BOZEMAN        CLEAR     64  45  49 W6        30.01S
DILLON         PTCLDY    58  37  45 SE6       30.03S
W YELLOWSTONE  PTCLDY    48  39  71 CALM      30.16S
THREE FORKS      N/A     55  55 100 CALM      30.00S
TWIN BRIDGES     N/A     72  32  23 N8        30.00S
$$

MTZ009-010-012-014-046-048-049-054-030800-
EAST SLOPES AND CENTRAL MONTANA

CITY           SKY/WX    TMP DP  RH WIND       PRES   REMARKS
CUT BANK       CLEAR     64  48  56 SE10      29.98S
GREAT FALLS    CLEAR     67  48  50 E7        29.96S
MALMSTROM AFB  CLEAR     62  48  61 S5        29.96S
HELENA         PTCLDY    69  40  34 W5        29.98S
CONRAD           N/A     57  49  75 CALM      30.01S
$$

MTZ011-013-016-021-045-047-050-051-030800-
NORTH CENTRAL MONTANA

CITY           SKY/WX    TMP DP  RH WIND       PRES   REMARKS
HAVRE          CLEAR     65  53  65 E14       29.97R
LEWISTOWN      CLEAR     66  45  46 E12       30.04F
CHINOOK          N/A     63  55  77 E8        29.99F
FORT BENTON      N/A     72  48  43 NE8       29.95S
$$

MTZ017>020-022>027-061-062-030800-
NORTHEAST MONTANA

CITY           SKY/WX    TMP DP  RH WIND       PRES   REMARKS
GLASGOW        CLEAR     61  47  59 E10       30.01S
JORDAN           N/A     62  48  60 E5        30.02S
SIDNEY         CLEAR     57  46  67 W6        30.03S
WOLF POINT     CLEAR     59  47  64 NE3       30.04R
MALTA            N/A     65  50  58 CALM      29.98S
PLENTYWOOD       N/A     57  50  77 CALM      30.04F
POPLAR           N/A     61  50  67 CALM      30.04S
SCOBEY           N/A     55  46  71 CALM      30.04R
$$

MTZ028>42-056>058-030800-
SOUTHCENTRAL AND SOUTHEAST MONTANA

CITY           SKY/WX    TMP DP  RH WIND       PRES   REMARKS
BAKER          CLEAR     56  46  69 SE3       30.06R
BILLINGS       CLEAR     67  44  43 N8        30.02F
LIVINGSTON     CLEAR     69  41  36 E14       30.04S
MILES CITY     CLEAR     64  48  56 N7        30.02R
EKALAKA          N/A     66  46  48 SE6       30.05S
FORSYTH          N/A     64  48  55 E6        30.01S
LAUREL           N/A     69  39  33 S8        30.00F
ROUNDUP          N/A     67  42  40 CALM      29.95F
$$

REGIONAL REPORTS...DAKOTAS

CITY           SKY/WX    TMP DP  RH WIND       PRES   REMARKS
WILLISTON      CLEAR     57  49  74 E3        30.04R
MINOT          CLEAR     56  50  80 SW9       29.98S
DICKINSON      CLEAR     52  47  83 W3        30.03S
BEACH          FAIR      52  50  93 CALM      30.06S
CROSBY         FAIR      50  50 100 SW3       30.03S
BISMARCK       CLEAR     58  52  80 CALM      29.99S
GRAND FORKS    CLEAR     51  47  86 NW5       29.87S
FARGO          CLEAR     56  49  77 W7        29.89R
BUFFALO SD       N/A     60  49  66 NE10      29.99S
RAPID CITY     CLEAR     63  52  67 E3        30.04S
$$

REGIONAL REPORTS...WYOMING/IDAHO/WASHINGTON

CITY           SKY/WX    TMP DP  RH WIND       PRES   REMARKS
GILLETTE       CLEAR     59  49  69 CALM      30.06S
SHERIDAN       CLEAR     60  45  57 CALM      30.05S
BUFFALO WY     CLEAR     64  42  44 W7        30.11F
CODY           PTCLDY    66  37  34 CALM      30.08S
YELLOWSTONE LA   N/A     49  36  61 CALM      30.27S
IDAHO FALLS    MOCLDY    60  45  57 N6        29.96R
SALMON         MOCLDY    63  43  48 CALM      29.92R
BOISE          CLOUDY    83  44  25 E5        29.79R
SPOKANE        MOCLDY    80  26  13 CALM      29.82F
$$

REGIONAL REPORTS...ALBERTA

CITY           SKY/WX    TMP DP  RH WIND       PRES   REMARKS
EDMONTON       CLEAR     70  52  52 SE8       29.93S
CALGARY        PTCLDY    64  52  63 S7        29.97S
LETHBRIDGE     CLEAR     55  50  82 S3        29.93S
MEDICINE HAT   CLEAR     66  54  63 E6        29.95S
ONEFOUR          N/A     63  54  72 E15         N/A
$$

REGIONAL REPORTS...SASKATCHEWAN

CITY           SKY/WX    TMP DP  RH WIND       PRES   REMARKS
SWIFT CURRENT  CLEAR     57  52  82 S8        30.03S
REGINA         CLEAR     52  50  93 W3        30.02R
SASKATOON      CLEAR     54  52  94 VRB2      30.01S
CYPRESS HILLS    N/A     57  48  72 SE8         N/A
VAL MARIE        N/A     55  50  82 NE7         N/A
ROCKGLEN         N/A     57  50  77 SE3         N/A
ASSINIBOIA       N/A     61  54  77 S6          N/A
$$


USA.gov is the U.S. government's official web portal to all federal, state and local government web resources and services.